(°C)
15°
16°
17°
17°
17°
17°
17°
(°C)
12°
13°
14°
15°
14°
14°
14°
ZZO
Z
Z
Z
Z
Z
ZZW
(km/u)
11-20
10-22
9-20
9-22
10-23
9-22
9-22
(mm)
0
0
0
0
0
0
0
(%)
0
0
0
0
0
1
2

Sun elevation

/ 35.2°
sun-icon
UV 3
05:44
19:29
(6°)
06:17
19:50

METAR for 52.17°N 20.97°O (EPWA)

Tijd Conditions Temperatuur/
Dauwpunt
Wind Zicht Weer Wolken Luchtdruk Change Raw
VFR 15°C / 5°C 170º variable 130º to 200º 7kt >10km - Clouds and Visibility OK 1016 No Significant change EPWA 120730Z 17007KT 130V200 CAVOK 15/05 Q1016 NOSIG
VFR 14°C / 5°C 160º 8kt >10km - Clouds and Visibility OK 1016 No Significant change EPWA 120700Z 16008KT CAVOK 14/05 Q1016 NOSIG
VFR 13°C / 5°C 150º 9kt >10km - Clouds and Visibility OK 1016 No Significant change EPWA 120630Z 15009KT CAVOK 13/05 Q1016 NOSIG
VFR 13°C / 5°C 150º 9kt >10km - Clouds and Visibility OK 1016 No Significant change EPWA 120600Z 15009KT CAVOK 13/05 Q1016 NOSIG
VFR 10°C / 5°C 150º 6kt >10km - Clouds and Visibility OK 1016 No Significant change EPWA 120530Z 15006KT CAVOK 10/05 Q1016 NOSIG
VFR 10°C / 5°C 150º 6kt >10km - Clouds and Visibility OK 1016 No Significant change EPWA 120500Z 15006KT CAVOK 10/05 Q1016 NOSIG
VFR 9°C / 5°C 150º 6kt >10km - Clouds and Visibility OK 1016 No Significant change EPWA 120430Z 15006KT CAVOK 09/05 Q1016 NOSIG
VFR 9°C / 4°C 140º 6kt >10km - Clouds and Visibility OK 1016 No Significant change EPWA 120400Z 14006KT CAVOK 09/04 Q1016 NOSIG
VFR 8°C / 3°C 140º 6kt >10km - Clouds and Visibility OK 1016 No Significant change EPWA 120330Z 14006KT CAVOK 08/03 Q1016 NOSIG
VFR 10°C / 4°C 150º 7kt >10km - Clouds and Visibility OK 1016 No Significant change EPWA 120300Z 15007KT CAVOK 10/04 Q1016 NOSIG
VFR 10°C / 4°C 160º 7kt >10km - Clouds and Visibility OK 1016 No Significant change EPWA 120230Z 16007KT CAVOK 10/04 Q1016 NOSIG
VFR 11°C / 5°C 160º 8kt >10km - Clouds and Visibility OK 1016 No Significant change EPWA 120200Z 16008KT CAVOK 11/05 Q1016 NOSIG
VFR 12°C / 5°C 150º 9kt >10km - Clouds and Visibility OK 1016 No Significant change EPWA 120130Z 15009KT CAVOK 12/05 Q1016 NOSIG
VFR 12°C / 5°C 150º 9kt >10km - Clouds and Visibility OK 1016 No Significant change EPWA 120100Z 15009KT CAVOK 12/05 Q1016 NOSIG
VFR 12°C / 5°C 140º 8kt >10km - Clouds and Visibility OK 1016 No Significant change EPWA 120030Z 14008KT CAVOK 12/05 Q1016 NOSIG
VFR 12°C / 6°C 150º 9kt >10km - Clouds and Visibility OK 1017 No Significant change EPWA 120000Z 15009KT CAVOK 12/06 Q1017 NOSIG
VFR 12°C / 5°C 160º 9kt >10km - Clouds and Visibility OK 1017 No Significant change EPWA 112330Z 16009KT CAVOK 12/05 Q1017 NOSIG
VFR 13°C / 6°C 170º 7kt >10km - Clouds and Visibility OK 1017 No Significant change EPWA 112300Z 17007KT CAVOK 13/06 Q1017 NOSIG
VFR 13°C / 6°C 180º 8kt >10km - Clouds and Visibility OK 1017 No Significant change EPWA 112230Z 18008KT CAVOK 13/06 Q1017 NOSIG
VFR 13°C / 6°C 180º variable 150º to 210º 9kt >10km - Clouds and Visibility OK 1017 No Significant change EPWA 112200Z 18009KT 150V210 CAVOK 13/06 Q1017 NOSIG
VFR 13°C / 6°C 180º variable 150º to 210º 6kt >10km Light Rain Clear 1016 No Significant change EPWA 112130Z 18006KT 150V210 9999 -RA NSC 13/06 Q1016 NOSIG
VFR 14°C / 6°C 190º variable 160º to 220º 7kt >10km Light Rain Clear 1016 No Significant change EPWA 112100Z 19007KT 160V220 9999 -RA NSC 14/06 Q1016 NOSIG
VFR 14°C / 6°C 200º 5kt >10km Light Rain Clear 1016 No Significant change EPWA 112030Z 20005KT 9999 -RA NSC 14/06 Q1016 NOSIG
VFR 15°C / 5°C 210º variable 190º to 250º 9kt >10km Light Rain Clear 1016 No Significant change EPWA 112000Z 21009KT 190V250 9999 -RA NSC 15/05 Q1016 NOSIG

VFR

15°C / 5°C

[Meer]
Wind 170º variable 130º to 200º 7kt
Zicht >10km
Weer -
Wolken Clouds and Visibility OK
Luchtdruk 1016
Change No Significant change
Raw EPWA 120730Z 17007KT 130V200 CAVOK 15/05 Q1016 NOSIG

VFR

14°C / 5°C

[Meer]
Wind 160º 8kt
Zicht >10km
Weer -
Wolken Clouds and Visibility OK
Luchtdruk 1016
Change No Significant change
Raw EPWA 120700Z 16008KT CAVOK 14/05 Q1016 NOSIG

VFR

13°C / 5°C

[Meer]
Wind 150º 9kt
Zicht >10km
Weer -
Wolken Clouds and Visibility OK
Luchtdruk 1016
Change No Significant change
Raw EPWA 120630Z 15009KT CAVOK 13/05 Q1016 NOSIG

VFR

13°C / 5°C

[Meer]
Wind 150º 9kt
Zicht >10km
Weer -
Wolken Clouds and Visibility OK
Luchtdruk 1016
Change No Significant change
Raw EPWA 120600Z 15009KT CAVOK 13/05 Q1016 NOSIG

VFR

10°C / 5°C

[Meer]
Wind 150º 6kt
Zicht >10km
Weer -
Wolken Clouds and Visibility OK
Luchtdruk 1016
Change No Significant change
Raw EPWA 120530Z 15006KT CAVOK 10/05 Q1016 NOSIG

VFR

10°C / 5°C

[Meer]
Wind 150º 6kt
Zicht >10km
Weer -
Wolken Clouds and Visibility OK
Luchtdruk 1016
Change No Significant change
Raw EPWA 120500Z 15006KT CAVOK 10/05 Q1016 NOSIG

VFR

9°C / 5°C

[Meer]
Wind 150º 6kt
Zicht >10km
Weer -
Wolken Clouds and Visibility OK
Luchtdruk 1016
Change No Significant change
Raw EPWA 120430Z 15006KT CAVOK 09/05 Q1016 NOSIG

VFR

9°C / 4°C

[Meer]
Wind 140º 6kt
Zicht >10km
Weer -
Wolken Clouds and Visibility OK
Luchtdruk 1016
Change No Significant change
Raw EPWA 120400Z 14006KT CAVOK 09/04 Q1016 NOSIG

VFR

8°C / 3°C

[Meer]
Wind 140º 6kt
Zicht >10km
Weer -
Wolken Clouds and Visibility OK
Luchtdruk 1016
Change No Significant change
Raw EPWA 120330Z 14006KT CAVOK 08/03 Q1016 NOSIG

VFR

10°C / 4°C

[Meer]
Wind 150º 7kt
Zicht >10km
Weer -
Wolken Clouds and Visibility OK
Luchtdruk 1016
Change No Significant change
Raw EPWA 120300Z 15007KT CAVOK 10/04 Q1016 NOSIG

VFR

10°C / 4°C

[Meer]
Wind 160º 7kt
Zicht >10km
Weer -
Wolken Clouds and Visibility OK
Luchtdruk 1016
Change No Significant change
Raw EPWA 120230Z 16007KT CAVOK 10/04 Q1016 NOSIG

VFR

11°C / 5°C

[Meer]
Wind 160º 8kt
Zicht >10km
Weer -
Wolken Clouds and Visibility OK
Luchtdruk 1016
Change No Significant change
Raw EPWA 120200Z 16008KT CAVOK 11/05 Q1016 NOSIG

VFR

12°C / 5°C

[Meer]
Wind 150º 9kt
Zicht >10km
Weer -
Wolken Clouds and Visibility OK
Luchtdruk 1016
Change No Significant change
Raw EPWA 120130Z 15009KT CAVOK 12/05 Q1016 NOSIG

VFR

12°C / 5°C

[Meer]
Wind 150º 9kt
Zicht >10km
Weer -
Wolken Clouds and Visibility OK
Luchtdruk 1016
Change No Significant change
Raw EPWA 120100Z 15009KT CAVOK 12/05 Q1016 NOSIG

VFR

12°C / 5°C

[Meer]
Wind 140º 8kt
Zicht >10km
Weer -
Wolken Clouds and Visibility OK
Luchtdruk 1016
Change No Significant change
Raw EPWA 120030Z 14008KT CAVOK 12/05 Q1016 NOSIG

VFR

12°C / 6°C

[Meer]
Wind 150º 9kt
Zicht >10km
Weer -
Wolken Clouds and Visibility OK
Luchtdruk 1017
Change No Significant change
Raw EPWA 120000Z 15009KT CAVOK 12/06 Q1017 NOSIG

VFR

12°C / 5°C

[Meer]
Wind 160º 9kt
Zicht >10km
Weer -
Wolken Clouds and Visibility OK
Luchtdruk 1017
Change No Significant change
Raw EPWA 112330Z 16009KT CAVOK 12/05 Q1017 NOSIG

VFR

13°C / 6°C

[Meer]
Wind 170º 7kt
Zicht >10km
Weer -
Wolken Clouds and Visibility OK
Luchtdruk 1017
Change No Significant change
Raw EPWA 112300Z 17007KT CAVOK 13/06 Q1017 NOSIG

VFR

13°C / 6°C

[Meer]
Wind 180º 8kt
Zicht >10km
Weer -
Wolken Clouds and Visibility OK
Luchtdruk 1017
Change No Significant change
Raw EPWA 112230Z 18008KT CAVOK 13/06 Q1017 NOSIG

VFR

13°C / 6°C

[Meer]
Wind 180º variable 150º to 210º 9kt
Zicht >10km
Weer -
Wolken Clouds and Visibility OK
Luchtdruk 1017
Change No Significant change
Raw EPWA 112200Z 18009KT 150V210 CAVOK 13/06 Q1017 NOSIG

VFR

13°C / 6°C

[Meer]
Wind 180º variable 150º to 210º 6kt
Zicht >10km
Weer Light Rain
Wolken Clear
Luchtdruk 1016
Change No Significant change
Raw EPWA 112130Z 18006KT 150V210 9999 -RA NSC 13/06 Q1016 NOSIG

VFR

14°C / 6°C

[Meer]
Wind 190º variable 160º to 220º 7kt
Zicht >10km
Weer Light Rain
Wolken Clear
Luchtdruk 1016
Change No Significant change
Raw EPWA 112100Z 19007KT 160V220 9999 -RA NSC 14/06 Q1016 NOSIG

VFR

14°C / 6°C

[Meer]
Wind 200º 5kt
Zicht >10km
Weer Light Rain
Wolken Clear
Luchtdruk 1016
Change No Significant change
Raw EPWA 112030Z 20005KT 9999 -RA NSC 14/06 Q1016 NOSIG

VFR

15°C / 5°C

[Meer]
Wind 210º variable 190º to 250º 9kt
Zicht >10km
Weer Light Rain
Wolken Clear
Luchtdruk 1016
Change No Significant change
Raw EPWA 112000Z 21009KT 190V250 9999 -RA NSC 15/05 Q1016 NOSIG

TAF for 52.17°N 20.97°O (EPWA)

From till


From till Wind 150º 7kt. Visibility 10km or more. Nil Significant Cloud.
Becoming from till Wind 320º 12kt. Visibility 10km or more. Nil Significant Cloud.
Temporarly from till Light Showers Rain . Scattered Clouds 2500ft. Broken Clouds 4000ft.
Becoming from till Wind 320º 12kt. Visibility 10km or more. Broken Clouds 1200ft. Broken Clouds 2000ft.
Temporarly from till Light Rain . Broken Clouds 700ft.
With 40% probability, Temporarly from till Visibility 3000m. Rain Snow . Broken Clouds 400ft.

Raw: TAF EPWA 120530Z 1206/1306 15007KT CAVOK TEMPO 1213/1218 -SHRA SCT025 BKN040CB BECMG 1213/1216 32012KT BECMG 1216/1219 BKN012 BKN020 TEMPO 1217/1306 -RA BKN007 PROB40 TEMPO 1302/1306 3000 RASN BKN004

Huidige satelliet- en regenbeelden voor 52.17°N 20.97°O

  • Neerslag:
  • <1 mm
  • 1-2 mm
  • 2-5 mm
  • >5 mm

De locatiemarkering is geplaatst op 52.17°N 20.97°O. [Meer]

The real-time satellite image combines visible light during daytime with infrared radiation during nighttime. At night, the image is not dark as infrared radiation can detect temperature differences. Unfortunately, low clouds and fog are difficult to distinguish from ground temperatures and thus can be almost invisible during the night. Meteosat satellite images for Europe are updated in real-time every 5 minutes. GOES-16/GOES-17 (North & South America) and Himawari (Asia) images update every 10 minutes.

Neerslag wordt geschat door middel van radar en satellieten. Tijdens de nacht zijn de schattingen van satellieten minder nauwkeurig dan overdag. Oranje kruizen geven plaatsten aan waar bliksem werd waargenomen (boven Europa).

Copyright 2021 EUMETSAT / meteoblue. Bliksemgegevens verstrekt door nowcast.